GFSNGP_700_spd_090.txt.gz
Wind_Speed
30 26 22 14 15 31 35 35 25 27 30 32 26 22 24 22 18 19 28 31 25 24 23 21 16 16 19 23 25 27 25 25 27 30 31 30 30 30 30 31 32 32 33 32
24 28 25 23 27 19 26 36 41 38 41 34 30 28 31 30 26 28 26 31 25 29 31 27 22 17 16 17 19 20 21 23 24 25 25 27 27 28 29 30 31 31 31 31
4 16 20 11 26 33 28 28 32 37 26 13 20 22 22 23 25 25 27 29 29 35 31 28 24 20 17 16 17 19 20 21 22 23 23 25 26 28 29 30 30 29 29 29
6 14 4 9 10 7 27 27 27 31 28 22 23 25 27 26 29 28 26 27 28 29 26 22 26 24 22 20 19 20 19 19 19 21 23 24 26 28 28 29 29 29 29 29
6 11 3 6 7 10 13 18 20 24 21 19 22 22 20 23 23 22 22 22 24 23 22 18 26 26 23 25 24 22 20 19 20 22 22 23 26 27 28 29 29 29 28 28
5 2 1 3 4 7 7 9 7 11 16 18 17 15 12 14 16 15 18 19 20 23 19 20 22 27 30 27 25 20 20 21 22 22 24 25 27 28 28 29 30 28 27 26
14 8 5 7 5 2 2 3 2 3 5 7 9 11 12 15 16 16 17 18 20 20 21 22 21 19 22 24 21 19 21 22 23 25 27 27 27 27 27 27 27 26 25 24
10 6 4 7 8 5 4 6 8 9 12 13 12 12 15 15 14 13 14 15 17 18 24 21 17 17 19 19 19 20 20 22 25 26 26 26 25 25 25 25 24 24 23 23
8 8 4 2 6 4 9 8 10 8 6 6 6 8 10 9 8 7 6 7 10 13 19 17 16 18 20 19 19 20 21 23 24 23 23 23 22 23 24 24 23 22 21 19
14 4 9 8 8 15 11 11 9 7 5 7 8 8 8 7 6 5 4 3 4 9 13 16 18 20 20 21 22 22 23 23 24 25 22 21 21 22 23 22 21 19 17 17
20 18 16 15 18 14 12 12 14 12 10 9 10 9 8 6 5 5 4 4 3 4 9 14 17 19 21 23 23 24 25 25 24 21 20 20 20 21 20 20 18 16 16 16
15 14 17 19 18 16 11 11 11 13 13 11 9 8 6 5 5 6 5 5 6 8 10 12 15 18 22 25 27 29 27 28 29 21 21 20 20 20 18 17 14 11 10 11
23 27 29 19 24 15 11 13 12 11 11 10 9 8 7 8 7 5 4 5 8 9 9 13 17 20 22 21 25 33 28 23 24 24 23 19 17 17 20 17 13 12 12 13
25 26 29 26 20 21 16 15 11 10 9 8 10 11 10 10 9 9 10 11 11 11 12 14 15 15 15 15 16 16 16 16 16 18 17 19 17 16 14 17 19 17 17 17
17 16 15 19 27 14 16 16 13 11 11 9 10 10 11 13 13 14 15 17 16 16 16 17 17 17 17 17 17 17 18 18 18 18 18 17 18 18 16 15 15 17 21 23
9 8 11 12 19 15 20 16 15 12 11 11 13 14 14 16 16 15 15 17 20 21 22 22 22 22 22 22 23 22 21 20 20 20 19 23 22 23 21 21 19 19 18 18
1 5 9 7 14 14 21 20 16 13 11 11 12 13 14 15 16 17 19 23 23 22 22 23 24 24 24 25 25 24 24 24 24 23 24 23 22 23 23 24 24 26 24 24
1 1 4 3 8 14 18 18 19 17 15 13 14 15 16 17 19 22 24 26 25 23 17 16 16 18 19 20 22 24 25 27 28 28 26 25 24 26 26 27 25 25 25 24
5 7 8 8 8 12 16 21 24 22 19 18 18 20 21 23 25 26 25 22 19 12 11 11 12 13 14 14 15 17 19 21 26 29 30 30 29 32 33 31 27 27 28 29
7 9 9 10 9 12 14 16 16 14 15 17 20 23 27 25 20 17 13 9 10 12 14 15 17 18 18 19 20 21 21 22 22 22 25 30 32 32 32 32 32 33 33 32
7 9 10 12 12 11 12 14 15 17 20 22 21 16 14 12 8 8 10 12 15 16 17 17 17 18 19 19 20 20 21 22 24 23 21 22 28 31 33 35 37 36 35 35
7 7 10 11 12 13 13 12 13 12 11 9 8 7 8 9 11 13 14 14 15 16 17 18 18 18 18 18 18 21 16 19 18 19 20 21 22 21 20 23 28 31 32 33
8 5 5 7 8 4 3 3 4 5 6 8 10 11 12 12 12 12 13 13 13 14 15 15 16 16 16 17 17 17 16 20 23 23 24 24 24 23 23 24 24 24 26 26
8 7 7 7 7 4 2 4 5 6 8 9 10 11 12 12 11 11 11 11 12 13 13 14 14 15 15 16 16 17 18 19 20 20 21 22 22 23 24 26 27 29 29 28
8 7 8 8 9 8 6 7 10 9 9 9 10 10 10 10 11 11 12 13 13 13 13 14 16 16 17 18 18 19 20 21 21 22 23 23 24 24 25 25 26 26 27 28
11 12 12 12 11 10 10 11 12 12 11 10 10 11 11 12 12 13 13 13 14 15 18 19 19 18 18 19 20 20 22 23 23 24 25 25 26 27 27 28 29 29 29 30
14 14 13 13 14 14 15 14 14 14 13 12 13 13 14 14 15 15 16 17 18 19 19 18 18 19 20 21 22 23 24 25 27 27 28 28 29 29 29 30 30 31 32 32

GFSNGP_700_spd_093.txt.gz
Wind_Speed
20 20 18 9 19 30 37 34 24 28 35 31 25 18 18 20 19 17 18 21 25 25 24 22 18 15 15 15 21 25 28 32 32 29 25 25 28 30 32 33 33 33 33 34
16 19 23 24 27 23 21 28 40 38 36 27 25 30 32 32 28 25 22 27 31 32 26 28 27 23 21 17 17 21 23 24 23 21 21 24 26 26 26 28 29 30 32 32
5 9 21 20 33 26 35 27 28 38 26 20 24 27 24 28 31 26 25 29 32 33 31 27 27 29 23 21 19 18 17 17 17 18 20 21 22 23 24 27 29 30 30 30
8 1 1 6 8 13 17 25 33 33 25 19 22 22 19 20 24 27 26 27 27 27 27 27 25 24 22 23 20 18 17 16 17 18 19 19 21 23 25 27 28 29 29 29
3 4 5 3 3 8 9 11 17 27 26 22 21 22 22 24 25 25 25 23 22 24 25 24 23 19 22 23 22 19 17 15 16 17 19 20 22 23 25 26 28 28 28 28
1 2 2 2 5 3 3 7 7 12 14 15 17 22 19 22 21 19 19 20 21 22 23 24 21 16 21 23 23 20 18 16 18 19 20 21 24 26 28 28 29 29 28 28
9 6 5 3 4 2 2 1 1 1 4 7 10 11 12 14 15 16 17 19 20 19 21 19 20 16 15 22 25 22 21 20 19 20 21 23 27 28 28 27 26 27 27 27
7 7 5 4 4 5 6 9 8 8 9 12 12 13 13 14 15 15 15 16 16 17 17 18 19 16 13 15 19 22 21 19 19 20 22 24 25 25 25 24 24 24 25 25
5 4 9 13 11 10 11 13 11 9 7 6 7 8 9 9 9 9 8 8 10 12 15 15 17 14 13 14 16 18 19 19 19 20 22 24 24 23 22 22 23 23 22 22
14 9 12 12 7 11 12 11 12 10 8 7 9 10 10 9 6 5 4 4 3 4 5 9 12 13 15 17 18 19 19 20 21 22 23 24 25 23 21 22 22 21 20 18
21 19 21 24 21 15 15 15 16 15 13 12 10 8 8 8 6 5 4 3 2 2 5 8 11 14 16 18 19 21 22 23 24 24 25 26 22 21 21 21 20 20 18 16
19 20 20 21 22 21 19 18 15 14 13 13 12 9 7 5 5 6 5 2 3 4 5 6 8 12 16 19 21 23 25 27 27 25 26 25 21 20 20 19 19 18 15 13
24 25 26 24 27 26 23 17 15 9 9 12 11 9 8 6 6 5 3 4 5 6 5 7 10 14 17 21 23 26 20 24 37 28 27 23 25 22 18 17 16 17 15 13
26 31 30 25 23 28 22 15 14 10 8 10 11 11 10 9 9 9 7 9 10 10 10 11 12 13 14 15 15 17 18 15 13 15 14 15 17 17 17 15 14 14 15 19
21 16 13 12 15 21 21 14 15 11 10 11 12 12 9 7 9 11 12 13 13 12 13 14 16 17 18 19 19 19 19 18 18 17 17 17 18 17 19 18 16 16 15 16
10 4 2 5 11 15 18 9 12 14 12 11 13 13 12 11 11 13 13 13 14 16 18 20 21 22 22 22 23 23 23 23 22 21 21 20 18 18 24 21 21 21 19 19
8 6 4 4 4 10 11 9 11 14 15 13 12 12 13 13 13 14 15 16 19 21 23 22 20 20 19 20 21 23 24 25 23 24 20 23 24 26 25 21 21 24 22 23
4 5 4 2 1 9 10 12 16 20 15 15 14 13 14 15 16 17 19 21 23 23 22 17 13 12 12 12 13 14 16 19 21 22 23 27 27 27 26 25 24 24 24 25
7 4 2 3 4 5 8 11 15 15 20 21 20 17 17 18 20 22 25 26 23 18 13 12 11 12 13 14 15 15 15 16 17 18 19 20 22 25 28 30 29 32 33 30
8 8 8 6 6 7 9 13 14 14 14 16 14 17 18 21 24 23 16 13 10 11 12 14 15 15 15 16 16 15 17 17 18 18 19 20 21 20 25 29 31 31 32 31
10 9 10 10 8 8 9 12 12 14 15 17 18 19 19 16 14 12 10 10 11 13 14 14 14 15 15 15 15 15 14 16 16 15 17 16 17 19 21 22 25 30 32 34
13 9 8 10 11 11 12 14 16 15 14 13 10 8 8 9 10 11 11 11 12 13 13 13 13 13 13 13 13 14 13 13 14 16 20 21 21 22 23 23 22 23 25 25
11 8 6 4 4 7 8 6 5 5 5 7 8 9 10 11 11 11 11 11 10 10 10 11 11 11 11 11 12 12 13 13 15 16 17 18 19 20 21 22 23 25 26 27
8 6 5 6 6 6 6 4 2 5 6 7 8 9 10 10 10 10 10 10 10 10 10 10 11 12 13 14 15 16 16 15 16 17 18 19 20 22 22 23 23 24 24 25
9 8 8 7 7 7 6 6 7 7 9 8 7 7 7 8 8 9 9 10 11 10 11 12 14 15 15 15 15 15 16 17 18 19 20 20 22 23 24 25 26 26 27 28
12 11 11 12 12 12 13 13 12 14 13 10 9 7 7 7 8 8 9 10 11 12 15 16 16 15 14 15 16 17 18 19 20 21 22 23 24 25 27 28 29 30 31 32
19 19 17 17 17 15 14 14 13 13 14 14 14 14 13 13 14 14 14 15 16 17 17 17 16 15 16 17 18 19 19 21 21 21 23 25 26 28 30 31 33 34 36 37

GFSNGP_700_spd_096.txt.gz
Wind_Speed
17 17 16 17 18 25 40 34 21 27 28 24 18 18 15 13 12 14 15 18 20 20 21 21 19 17 11 12 16 20 27 28 28 28 27 30 28 26 25 22 24 30 33 33
21 21 20 17 17 21 21 31 36 36 36 29 23 24 27 27 26 25 21 22 24 26 26 23 25 27 25 22 17 18 20 22 25 27 29 28 26 22 21 24 28 29 28 29
6 11 8 14 20 26 25 24 23 34 34 31 33 31 25 24 29 29 24 27 31 28 28 27 24 24 25 25 25 21 21 21 22 22 22 22 21 22 23 24 25 26 28 29
5 3 3 7 5 5 17 16 22 27 26 21 18 16 21 26 31 30 25 24 26 27 27 26 26 25 23 23 23 22 23 20 18 18 18 19 20 20 20 22 24 25 27 28
2 3 8 3 4 4 6 8 8 17 22 24 21 21 23 21 23 25 26 25 24 25 26 26 24 23 22 21 21 23 23 20 17 17 18 18 18 18 20 23 25 27 29 30
1 3 3 1 8 4 5 4 7 7 7 9 13 18 14 18 20 20 22 22 21 23 25 25 22 22 21 20 22 22 21 20 19 19 19 18 18 20 22 25 28 30 31 31
7 5 3 6 4 4 2 2 2 2 1 5 8 9 10 12 14 16 18 19 19 20 21 21 20 20 19 18 20 21 24 22 21 19 19 19 20 21 24 27 28 28 28 28
4 5 7 8 10 10 6 5 6 5 7 9 12 12 13 15 17 17 18 19 19 19 18 18 17 17 17 15 18 24 25 24 22 20 20 20 20 22 24 26 25 25 25 26
6 4 7 11 14 15 12 11 10 10 8 8 10 11 10 11 12 13 13 14 15 15 15 15 16 17 17 17 19 21 24 26 23 21 20 20 21 22 24 25 24 23 23 24
14 12 17 16 16 17 18 12 13 14 11 9 7 8 10 11 11 10 9 8 8 8 8 10 14 16 17 17 16 17 18 20 20 20 21 22 23 23 26 23 23 24 23 23
18 18 23 25 24 25 21 16 17 17 15 14 13 10 10 9 7 8 6 6 5 3 4 6 10 13 15 15 17 18 19 19 20 22 24 26 25 27 27 25 23 23 22 21
21 22 23 22 18 22 21 20 20 18 18 16 18 13 10 8 7 6 4 2 3 3 3 3 6 9 12 15 17 19 20 22 24 26 27 29 27 28 23 22 22 22 19 19
24 28 29 30 27 26 26 24 21 16 18 17 14 13 10 11 7 6 5 4 3 3 4 6 7 8 12 15 17 20 23 25 27 29 27 35 28 28 27 26 22 19 18 17
26 31 31 29 30 25 25 25 22 18 19 14 9 9 11 11 10 9 9 8 7 8 8 9 9 11 13 15 16 18 20 22 24 25 17 14 19 19 18 18 18 18 17 16
18 22 15 11 10 11 17 20 22 20 17 12 12 11 11 11 6 8 10 10 10 11 11 11 13 15 17 19 19 20 21 21 20 18 19 19 19 19 19 19 22 21 20 19
14 14 9 5 3 3 6 12 14 13 17 14 13 14 12 12 13 12 12 12 12 13 14 16 17 18 19 22 24 24 24 25 24 23 23 23 23 23 21 20 24 24 22 21
9 9 7 1 0 2 5 8 14 13 19 17 15 16 17 17 15 15 14 14 14 16 18 20 21 20 19 18 18 19 21 24 26 27 26 25 25 24 25 26 28 28 25 22
10 6 3 2 2 2 5 6 8 9 10 14 15 14 16 16 16 17 17 18 19 21 23 22 20 17 15 14 13 12 13 15 18 20 21 22 23 24 28 31 30 28 28 28
11 8 7 6 3 2 5 9 10 11 13 18 16 18 20 22 20 20 20 21 23 25 21 17 14 13 14 15 15 16 16 16 17 18 18 19 20 22 22 23 25 27 30 30
12 8 9 11 10 7 6 7 10 11 12 13 14 18 21 21 19 20 22 24 20 16 13 12 12 13 15 15 15 15 15 16 17 17 18 19 19 20 20 19 20 21 24 28
13 11 8 10 12 11 10 10 10 11 12 13 14 17 19 20 21 19 17 15 15 14 11 12 14 16 16 16 15 15 14 14 14 15 14 14 13 16 18 19 19 19 20 21
12 10 9 8 9 12 14 14 14 14 14 13 15 17 15 13 12 12 12 12 10 10 13 13 12 12 11 11 11 11 11 11 12 12 12 14 15 15 16 17 18 19 20 23
11 10 7 8 6 5 8 11 10 7 5 6 8 9 10 10 11 12 12 12 12 11 10 10 9 9 8 9 9 10 11 12 12 13 14 14 16 17 18 19 20 21 22 23
10 10 8 8 7 6 6 8 9 8 6 4 7 9 9 10 11 11 12 12 11 10 10 10 9 9 10 11 12 12 12 12 13 14 15 16 17 18 19 20 21 22 23 25
12 11 11 11 10 11 11 11 11 11 11 10 10 10 8 8 9 10 10 10 10 10 9 9 10 12 13 13 12 12 13 14 15 16 17 18 19 19 21 22 23 24 26 28
16 16 15 14 14 14 16 17 17 18 18 15 15 13 11 9 9 10 9 9 10 10 11 12 13 15 15 14 14 15 16 17 17 17 17 18 19 21 23 25 27 28 29 30
19 18 17 18 19 19 21 21 20 20 19 18 16 15 15 16 16 17 18 17 16 16 16 16 16 17 16 16 16 17 18 18 17 18 19 20 22 23 25 26 27 29 33 35

GFSNGP_700_spd_099.txt.gz
Wind_Speed
23 16 17 20 15 13 31 37 21 32 29 29 23 16 15 15 17 15 13 13 13 13 13 13 13 14 13 11 12 14 17 21 26 29 30 30 30 30 28 29 26 23 23 23
18 18 20 23 19 17 18 29 38 29 28 24 19 25 23 20 15 16 23 23 22 19 17 16 19 20 24 25 22 18 15 17 20 24 28 29 29 28 29 25 24 25 24 23
3 2 7 9 10 13 20 25 22 32 38 29 29 33 30 27 25 26 29 28 28 29 28 27 26 25 25 27 31 29 25 20 21 22 25 28 29 27 25 24 24 22 22 24
5 2 2 3 5 9 5 13 20 20 18 20 20 20 25 32 36 28 24 24 24 25 29 29 27 27 25 24 26 28 30 28 25 25 26 26 25 24 23 22 21 21 23 24
3 6 8 4 6 4 7 6 3 9 12 17 15 20 22 21 21 22 26 24 24 29 28 26 26 26 26 26 25 27 28 27 26 26 24 23 22 22 21 20 21 22 24 26
1 3 2 3 3 1 4 3 2 3 8 5 13 20 14 17 20 21 22 23 23 25 24 24 23 25 23 22 23 23 24 23 24 23 22 22 22 20 19 20 21 23 26 28
7 5 7 9 6 2 4 2 2 2 7 6 1 5 8 11 12 13 14 16 17 18 19 20 22 22 21 22 21 20 23 24 24 22 21 21 20 19 20 20 22 25 27 28
4 5 7 6 8 7 5 6 6 3 4 4 5 7 9 12 13 15 16 17 18 19 20 20 19 20 19 18 18 21 24 26 25 23 22 20 21 21 21 22 23 25 27 27
6 5 10 11 13 14 13 15 16 12 8 9 6 6 8 9 11 12 14 14 14 15 15 16 17 18 19 20 22 23 24 24 25 26 24 24 24 22 22 23 25 25 25 25
12 10 15 15 18 21 20 18 22 22 15 10 10 8 8 10 11 12 11 11 11 10 10 11 13 17 19 23 24 22 22 23 26 26 27 27 22 23 24 25 27 27 27 25
17 17 20 23 23 23 25 26 23 20 18 14 13 13 14 12 11 9 10 9 8 8 6 5 6 11 15 19 19 20 18 18 20 24 23 21 24 25 27 29 28 27 25 23
21 23 25 25 26 25 25 25 23 26 19 19 16 16 18 17 12 8 6 4 4 5 6 4 5 8 10 12 12 14 18 20 20 20 23 25 27 28 29 30 29 28 25 25
22 26 27 28 28 28 30 25 28 21 20 22 17 18 18 18 13 11 7 6 5 5 4 5 6 7 9 12 14 17 20 22 23 25 26 28 29 32 31 33 29 30 27 23
24 25 23 20 18 16 17 19 22 22 20 14 17 16 14 13 16 12 11 10 9 8 8 8 8 9 10 12 12 16 20 23 24 26 27 28 28 25 19 22 23 22 23 23
22 20 22 17 14 12 7 7 12 16 19 15 17 16 13 17 10 13 9 7 10 12 11 11 10 11 13 15 18 19 21 22 23 23 23 22 22 22 22 23 23 21 24 26
18 16 17 13 10 6 5 3 7 14 16 18 18 16 15 14 13 12 11 10 12 12 12 13 13 15 17 18 19 20 23 26 26 27 26 26 25 26 24 24 25 23 22 25
14 12 11 10 7 7 1 2 4 9 7 19 20 18 15 17 17 15 14 13 14 15 16 17 18 20 21 21 20 19 18 20 23 26 28 28 27 27 26 26 26 25 26 28
13 10 8 7 6 5 4 4 4 7 11 12 21 20 19 17 20 22 16 18 18 19 20 21 23 24 22 20 18 17 16 15 16 17 20 22 23 24 25 25 25 27 30 33
13 11 8 8 6 6 6 9 11 11 12 12 11 14 18 18 18 20 23 22 21 22 23 24 22 19 16 16 16 17 17 17 17 17 18 19 20 21 22 23 23 24 25 26
12 13 11 9 10 11 11 11 11 13 13 13 14 14 17 19 20 21 23 24 22 22 21 18 16 15 15 15 15 16 16 16 16 17 17 18 19 20 19 20 20 19 19 19
11 12 12 11 10 11 13 13 12 13 14 14 14 14 15 17 19 20 22 22 19 16 15 15 13 13 15 16 17 16 16 16 15 14 14 15 15 16 17 19 20 20 20 21
12 12 12 12 11 10 12 14 16 16 17 20 20 21 22 21 21 19 17 15 13 13 12 11 13 13 13 12 12 11 11 10 11 11 11 11 12 14 15 16 17 18 19 20
11 11 11 11 11 11 11 10 10 12 14 16 16 13 11 12 12 12 12 13 13 13 13 13 12 12 11 10 10 11 12 12 13 13 13 14 14 16 17 17 18 19 20 21
11 11 11 11 11 11 11 10 9 10 10 11 14 16 13 11 13 13 13 13 14 13 13 12 12 12 11 11 12 14 14 13 14 14 15 16 17 17 18 18 19 20 21 22
13 14 13 13 14 15 15 15 15 16 16 17 17 17 17 14 13 13 12 13 12 12 13 13 12 12 12 13 13 14 14 15 15 16 16 17 16 16 16 17 19 21 23 24
15 16 16 16 17 19 20 20 18 19 19 19 19 19 18 20 18 15 14 14 13 12 13 13 14 16 17 16 15 16 15 16 16 17 17 16 16 16 18 19 22 23 23 25
18 18 18 17 18 18 18 19 20 21 22 21 20 21 19 20 21 22 22 21 20 20 20 21 20 16 16 17 17 16 16 17 17 17 17 17 17 17 20 22 23 24 26 27

GFSNGP_700_spd_102.txt.gz
Wind_Speed
19 22 20 17 15 16 14 19 15 21 26 26 21 13 7 9 11 14 12 10 8 7 7 8 9 10 12 13 15 16 18 20 22 23 24 25 26 27 27 28 28 28 27 27
15 10 16 18 19 18 18 18 28 31 33 17 15 28 27 19 16 15 15 13 11 11 10 12 13 15 17 18 19 17 15 15 18 19 22 26 28 27 27 26 27 28 28 25
5 6 2 7 5 6 12 18 18 23 25 23 26 27 23 27 25 21 22 23 20 18 18 18 19 20 21 23 23 24 26 26 21 20 21 21 24 28 28 26 26 29 26 24
4 3 1 2 4 3 7 8 7 15 13 17 12 27 31 31 30 30 30 30 27 25 23 24 25 25 26 26 27 26 27 30 31 30 26 24 23 24 26 27 26 25 24 24
3 4 6 1 5 2 3 8 3 2 8 12 14 21 21 21 33 33 32 35 36 33 29 26 25 26 26 27 27 27 26 27 29 32 32 28 26 25 24 24 23 23 23 23
1 2 2 2 5 5 4 4 2 0 4 4 5 12 13 16 14 17 19 22 23 24 24 24 25 26 27 26 27 25 24 25 27 28 28 26 26 25 22 22 22 22 22 23
5 5 4 4 6 3 3 2 3 3 2 4 4 2 3 4 6 11 14 14 16 18 20 22 23 25 25 24 23 21 24 25 24 23 23 24 24 23 22 21 20 21 22 23
4 4 4 2 4 3 6 8 6 7 7 8 5 3 2 5 8 10 12 13 16 18 18 20 21 23 23 22 23 24 25 24 23 23 23 24 23 23 22 22 21 22 22 24
5 5 11 15 18 17 16 14 13 13 13 10 8 6 7 7 8 10 11 12 12 14 15 16 17 19 21 21 22 24 25 24 23 24 26 25 25 24 23 23 23 23 24 25
11 7 12 16 19 20 23 22 20 18 17 20 14 11 9 8 9 9 10 10 10 10 10 11 12 15 17 19 21 23 24 23 24 25 27 27 26 26 27 26 24 25 27 27
15 15 18 19 21 22 23 23 25 23 20 19 21 15 14 12 12 13 11 10 10 8 7 8 8 8 12 16 19 21 23 22 22 23 26 27 29 29 26 23 26 28 30 29
14 19 22 24 25 26 29 29 27 27 22 23 17 16 16 15 14 15 14 9 6 5 5 5 5 6 7 10 14 16 16 17 16 18 20 23 26 23 23 26 28 30 30 30
16 20 22 22 24 23 21 25 24 25 23 17 21 18 17 16 16 16 15 13 8 5 4 4 5 3 7 9 11 14 15 18 18 20 20 19 21 24 27 29 30 30 28 29
19 22 21 20 19 16 15 16 12 12 18 16 18 18 16 15 14 14 19 15 12 10 7 7 8 8 8 9 10 11 17 19 21 22 24 25 27 28 29 28 24 19 20 23
19 21 19 18 15 13 12 11 7 3 9 12 13 15 14 15 13 15 12 15 13 7 8 9 10 10 11 12 13 14 17 19 21 22 23 23 24 25 24 21 21 21 22 23
16 18 17 15 14 10 9 9 5 1 3 10 12 12 17 16 13 10 9 9 10 11 11 11 12 13 14 15 17 18 19 20 21 24 27 27 26 26 25 24 24 24 23 24
14 16 15 12 12 9 3 3 2 3 3 9 14 16 16 16 16 14 14 14 12 12 13 14 15 17 18 20 21 20 19 19 18 19 21 25 28 28 28 27 26 25 25 27
13 13 13 11 10 11 6 4 5 9 9 9 11 15 20 21 19 19 19 22 20 17 18 18 20 21 23 24 22 19 17 17 17 17 16 17 19 20 21 23 23 23 24 24
13 12 11 11 11 11 10 8 9 10 10 12 14 16 16 23 25 22 21 19 19 21 23 23 23 23 22 19 17 15 15 15 16 16 17 17 17 18 18 19 19 20 21 21
14 13 12 11 10 11 13 13 13 13 13 14 14 15 17 19 20 21 24 24 22 22 24 25 23 20 17 16 15 15 15 16 16 15 15 15 16 17 17 17 18 17 17 18
13 13 13 12 12 11 11 12 14 15 16 15 15 15 16 17 20 21 21 21 23 23 24 21 18 16 15 14 15 15 15 15 15 14 14 14 14 14 14 15 16 18 17 17
13 12 12 12 12 11 11 11 12 14 15 16 17 18 19 20 22 25 27 26 23 21 19 15 14 14 14 14 13 12 11 11 11 11 11 11 11 12 12 13 15 16 17 18
12 12 12 11 11 12 12 12 13 13 13 12 12 12 12 15 18 17 16 15 14 13 13 13 14 14 14 13 12 11 11 12 13 13 13 14 14 14 15 16 16 17 18 18
14 14 13 12 13 13 14 14 14 14 15 14 14 15 17 19 19 19 17 13 15 15 16 15 15 15 14 14 13 12 12 13 13 13 13 14 15 15 16 16 15 15 15 17
16 16 15 15 16 18 18 18 18 19 18 18 18 19 19 20 20 21 19 15 14 14 16 16 16 16 15 15 14 13 14 15 14 14 15 15 15 14 13 13 13 15 17 19
16 17 17 19 19 20 20 20 19 21 21 20 21 22 21 19 18 19 21 22 20 18 16 15 15 16 17 17 17 19 17 14 16 16 16 16 15 14 14 13 14 16 19 20
19 20 20 21 20 18 17 17 18 19 19 19 18 20 21 23 24 23 21 21 22 23 23 22 21 22 23 25 24 20 18 17 17 17 18 17 15 14 13 14 16 18 19 21

GFSNGP_700_spd_108.txt.gz
Wind_Speed
8 9 13 16 12 9 8 5 4 3 10 5 6 10 4 4 8 9 9 9 9 9 13 17 20 21 22 24 26 27 27 27 27 26 25 26 26 26 27 27 27 26 25 24
5 11 3 2 3 4 8 10 12 11 15 15 15 14 12 9 8 11 14 14 14 13 12 11 13 16 20 22 22 23 27 28 28 27 28 28 27 26 25 25 26 26 25 25
3 8 7 6 3 1 3 3 6 7 8 12 13 21 15 16 18 16 15 15 16 16 15 12 12 12 13 14 15 17 19 20 20 20 18 19 21 23 25 25 26 27 28 28
2 4 1 1 2 2 3 4 2 5 7 10 10 10 16 17 21 24 24 23 22 20 18 16 14 14 14 15 17 19 20 21 23 23 24 24 23 22 23 24 26 27 28 28
2 2 2 1 2 3 3 5 3 1 2 5 6 5 10 17 23 30 27 26 26 28 28 25 23 22 21 23 24 24 27 27 26 28 28 29 29 29 29 26 25 25 28 28
1 1 1 4 3 4 6 6 5 5 5 4 2 4 12 16 21 29 25 23 25 27 29 31 31 32 33 32 35 32 30 30 30 29 30 29 28 28 29 30 31 30 28 26
4 4 4 5 5 3 2 3 7 9 8 7 6 3 3 4 9 20 22 24 20 23 25 29 33 34 32 32 31 31 30 30 30 30 29 29 30 30 30 30 29 28 28 26
3 3 2 4 4 4 9 14 15 16 16 14 11 10 8 7 7 7 7 6 8 18 15 17 20 23 26 27 27 27 27 28 29 29 29 29 27 27 27 27 27 26 25 24
5 4 7 9 11 13 14 18 20 20 19 19 17 16 14 14 14 11 11 11 12 13 16 20 21 20 22 23 24 23 24 25 26 27 26 25 24 23 23 24 24 25 25 25
6 4 7 10 13 16 19 21 21 21 22 21 22 22 19 17 14 11 11 12 12 13 14 16 17 20 18 19 19 19 21 23 24 24 23 22 22 22 24 25 25 26 25 26
11 11 10 11 14 18 19 20 23 24 22 22 24 22 23 20 18 15 14 13 13 13 14 13 12 13 15 15 14 15 16 17 19 20 21 21 21 22 24 27 29 28 28 30
10 8 10 13 16 17 18 18 21 24 22 19 21 22 22 20 19 19 18 15 14 15 13 13 11 11 11 11 9 11 11 12 15 17 18 17 19 23 25 27 27 30 32 32
9 9 10 14 15 15 14 15 17 19 16 10 14 17 19 17 15 19 18 16 17 14 15 15 13 12 10 10 9 9 11 16 17 18 20 19 20 20 25 26 25 24 24 27
9 9 10 13 13 13 13 13 15 13 8 2 5 9 12 15 14 17 14 14 16 16 19 19 18 15 13 12 9 10 16 14 18 16 26 21 18 25 21 25 28 28 25 24
9 9 10 11 11 12 11 12 9 8 6 3 4 6 9 13 13 13 13 14 13 15 14 18 21 19 16 15 14 13 13 13 14 15 15 17 19 20 21 21 21 22 24 25
9 8 9 10 11 11 11 8 7 5 3 0 3 4 7 10 13 15 14 15 13 10 11 11 11 13 15 15 15 15 15 16 17 18 20 21 22 23 24 25 25 24 27 27
8 8 9 9 10 10 9 9 8 5 3 3 7 8 9 11 14 16 17 20 16 17 18 17 18 18 18 19 19 19 19 20 21 22 22 23 23 24 25 27 29 29 29 27
8 8 8 8 9 9 9 9 9 10 10 11 13 15 15 16 19 21 22 22 22 23 23 22 21 24 25 25 24 23 23 22 23 23 23 22 22 23 23 23 25 27 29 29
8 8 9 8 9 10 10 10 11 13 12 13 14 15 15 17 18 19 20 21 22 24 26 28 27 26 25 28 27 26 25 24 22 21 20 21 21 21 21 21 21 22 23 25
7 8 9 9 9 9 10 10 11 12 12 13 15 16 17 19 19 18 18 18 21 23 24 26 25 26 27 27 27 27 27 25 23 21 20 20 20 19 19 18 19 19 19 19
7 8 9 10 10 11 11 11 11 12 11 12 13 14 16 17 18 19 20 21 22 23 25 27 29 30 30 31 29 27 25 22 21 20 19 19 19 18 18 19 18 18 18 17
9 9 10 10 11 11 11 11 12 13 13 13 14 14 14 15 15 15 15 15 16 17 18 20 21 24 27 30 32 28 21 18 17 18 17 16 15 14 14 14 14 14 14 14
9 10 11 12 13 13 13 14 14 15 16 17 18 18 18 19 20 20 21 22 22 21 21 21 23 23 21 17 20 19 13 14 17 17 16 16 15 15 15 15 16 16 16 16
10 11 12 13 14 14 15 16 17 19 20 20 21 22 21 22 22 24 22 23 22 22 23 24 23 22 21 17 14 13 12 14 16 17 17 18 17 17 16 15 15 16 16 16
12 13 13 13 14 15 17 18 20 20 20 21 21 21 21 21 20 20 22 23 24 25 25 24 24 23 23 19 16 18 20 20 20 22 20 19 19 19 19 16 13 14 14 14
14 14 14 14 16 17 18 19 20 19 19 19 20 19 18 18 18 17 18 19 20 21 22 23 24 23 22 20 21 21 22 22 23 24 24 23 24 25 20 18 14 16 17 16
15 15 16 17 17 18 18 18 18 19 18 17 18 18 17 17 18 19 19 19 20 20 19 18 17 18 21 21 21 21 22 24 26 27 27 27 27 27 23 18 15 17 17 17

GFSNGP_700_spd_114.txt.gz
Wind_Speed
3 5 5 5 1 2 4 2 3 6 12 7 7 6 7 5 3 2 2 0 1 2 3 2 4 7 8 10 22 26 28 30 28 26 23 17 17 17 16 18 20 22 25 26
12 10 7 4 4 2 4 6 6 2 2 4 6 9 4 3 3 1 2 3 1 0 1 2 4 4 4 5 6 13 20 23 22 13 9 17 19 18 17 18 19 20 21 22
2 6 4 5 1 0 2 4 5 3 6 10 12 14 15 13 10 9 6 4 3 2 2 2 2 2 3 3 5 9 13 13 12 15 20 21 20 21 22 23 25 24 23 23
3 6 3 5 4 4 6 7 6 4 4 6 7 8 8 7 12 15 13 11 9 8 6 5 5 5 4 5 4 5 7 10 13 16 19 21 23 24 24 22 23 22 22 22
3 4 4 7 5 5 8 10 7 6 6 5 6 9 6 5 5 12 16 17 18 17 16 15 13 11 10 10 10 11 12 14 15 16 18 19 20 21 22 22 21 21 20 21
1 1 1 6 7 7 9 7 5 5 5 6 6 5 8 11 10 10 11 16 18 25 25 23 24 22 21 20 19 20 20 21 21 21 22 22 23 24 25 25 26 27 27 27
1 5 5 10 7 6 1 5 10 12 13 13 12 12 12 13 11 7 6 8 12 18 22 25 29 31 30 31 33 33 34 33 32 30 31 30 31 30 29 30 30 30 30 31
4 5 6 3 6 5 8 14 15 17 17 16 16 16 17 16 14 12 9 8 7 8 12 18 24 25 29 31 33 35 36 39 40 40 39 38 35 32 31 31 31 31 31 32
7 6 8 10 12 10 12 16 18 18 20 18 16 19 20 19 19 17 15 13 11 10 10 10 11 14 26 22 24 22 23 25 28 31 31 30 30 30 30 30 30 30 30 32
13 8 8 11 12 11 12 15 18 19 21 22 21 19 21 21 21 20 19 15 14 12 10 11 12 14 15 16 19 24 22 21 22 24 27 28 28 28 29 28 28 28 28 28
19 15 15 15 13 11 11 14 17 17 19 22 23 20 19 21 21 21 21 20 18 15 14 14 15 15 16 16 16 17 17 19 22 23 24 25 25 27 28 27 28 28 28 28
19 16 14 9 11 12 13 13 14 13 16 20 19 14 13 16 18 21 20 21 20 19 17 18 19 19 18 14 14 16 16 17 17 19 20 20 20 24 26 25 28 28 27 27
15 14 13 14 12 12 13 13 14 12 14 16 16 10 4 7 13 16 19 20 22 22 20 20 20 20 20 19 18 17 15 15 16 16 17 19 19 22 24 25 25 24 24 26
17 14 14 12 11 12 12 13 13 12 12 14 13 10 6 4 8 11 14 17 21 20 19 20 20 21 22 22 21 22 20 17 16 19 19 21 24 27 30 23 23 27 25 27
15 16 11 13 12 11 12 12 12 12 12 11 10 9 6 4 5 8 10 14 16 19 20 20 22 21 19 17 16 21 24 23 20 19 20 20 20 18 19 19 20 24 24 27
13 14 14 13 12 11 11 10 11 11 12 11 10 9 7 7 8 10 14 18 19 20 22 24 24 24 21 19 17 17 19 23 24 23 23 23 23 23 22 23 24 25 23 20
14 13 13 12 12 11 11 10 11 11 12 11 11 11 11 13 14 14 15 17 19 22 24 25 27 27 27 27 26 25 26 27 27 27 27 27 27 28 27 26 25 24 23 23
18 17 13 12 11 11 11 11 11 12 13 12 12 13 14 16 17 18 18 19 21 23 25 26 27 29 30 31 33 33 32 31 32 33 34 33 33 32 33 31 28 28 28 28
20 18 16 13 11 11 11 11 11 13 14 13 14 14 16 17 18 19 20 20 22 22 24 26 27 27 28 29 30 31 32 33 35 36 36 37 39 37 37 35 31 27 27 27
22 20 16 13 11 11 11 12 12 14 15 15 15 15 15 16 18 19 21 22 23 23 23 23 22 22 23 24 25 26 28 30 32 34 34 32 33 35 36 35 34 30 25 26
22 20 16 13 13 12 12 13 13 14 15 16 16 16 16 17 19 20 21 23 26 25 26 26 26 27 27 27 26 25 25 24 24 26 28 30 30 31 33 31 27 24 23 24
22 19 16 14 13 13 13 14 14 15 16 16 17 17 18 20 20 21 24 25 25 27 27 26 26 26 26 27 26 26 26 25 25 24 24 24 25 26 26 25 23 22 23 24
22 19 16 14 14 13 14 15 15 15 16 17 18 19 20 21 21 21 20 23 23 24 23 23 23 23 24 25 25 26 25 25 25 26 25 23 22 24 22 21 20 20 21 21
21 18 16 14 13 14 14 15 16 16 17 18 19 19 19 20 21 21 21 21 21 20 19 19 20 20 20 21 22 22 24 24 24 25 24 21 17 19 21 23 23 22 21 20
19 17 15 14 14 15 15 16 16 17 17 18 18 19 19 19 19 21 21 21 22 22 21 22 22 23 24 24 25 23 22 21 22 22 24 21 19 17 18 21 22 21 19 19
18 16 14 13 15 15 15 16 16 16 16 16 17 18 19 21 22 22 23 25 25 26 27 27 28 28 28 27 27 26 25 22 21 22 22 23 22 19 17 19 20 18 17 18
17 15 14 14 15 16 15 15 15 15 16 17 18 20 21 23 25 27 28 29 31 32 33 33 34 34 34 32 31 28 27 26 24 22 21 22 22 23 24 20 18 17 16 19

GFSNGP_700_spd_117.txt.gz
Wind_Speed
8 6 5 5 4 6 8 6 3 2 2 3 3 2 5 7 6 5 6 6 7 7 6 5 3 3 5 7 12 16 17 19 16 20 18 18 15 13 15 15 18 19 21 23
12 11 8 6 4 4 4 4 2 3 5 4 8 10 8 7 7 5 4 5 7 6 5 4 2 1 1 2 3 10 19 21 21 19 22 27 24 21 8 11 14 15 17 19
4 5 1 2 2 2 3 4 5 2 3 7 11 13 10 12 12 8 6 3 2 2 3 4 2 1 1 2 2 3 7 12 16 13 7 5 8 13 16 16 17 18 19 21
1 3 3 4 2 3 4 2 3 4 3 4 7 6 3 3 7 11 10 10 9 6 3 2 1 1 1 1 2 3 5 8 10 10 12 12 14 17 18 19 21 23 23 23
2 1 3 2 2 3 4 3 2 5 3 4 7 12 6 3 4 6 13 14 14 15 15 14 12 11 8 7 7 7 8 8 9 10 11 13 14 17 18 19 20 20 19 19
2 1 4 1 3 5 6 2 2 2 1 5 8 11 8 6 7 7 11 12 16 17 19 22 22 20 20 19 19 18 17 16 15 15 15 16 17 17 18 19 20 21 22 23
5 4 5 5 5 3 1 2 6 7 8 10 14 14 16 14 14 11 8 9 11 15 18 20 23 26 28 28 29 29 29 29 28 28 27 27 26 25 25 25 26 25 26 27
3 6 5 4 4 6 7 8 7 9 10 12 16 16 18 18 17 17 13 11 11 12 13 13 15 18 25 28 30 32 36 38 38 36 36 36 36 35 34 33 32 31 30 31
7 6 11 13 10 11 12 12 12 12 11 13 15 16 19 19 19 20 19 16 15 14 13 13 12 12 13 15 21 25 26 30 31 30 32 31 32 32 33 34 33 32 31 31
18 5 8 12 13 11 12 12 13 15 17 16 16 19 18 18 21 21 22 20 20 17 15 14 13 13 14 15 16 17 18 21 27 26 25 24 26 28 30 31 31 31 31 30
20 18 19 16 14 13 10 11 12 13 15 17 19 18 16 14 17 22 22 22 22 21 17 16 15 16 16 18 19 20 20 20 21 23 25 26 26 26 28 29 30 30 30 30
22 15 15 13 13 11 10 11 11 11 13 14 16 17 14 11 11 15 19 21 22 22 21 20 19 17 18 19 20 21 21 19 20 21 22 23 23 24 26 27 28 28 28 28
22 20 16 15 15 12 12 12 11 11 11 12 13 14 14 10 6 9 15 18 20 21 22 21 22 22 21 21 22 23 24 22 21 21 21 22 19 20 21 23 24 25 28 29
20 20 19 15 14 14 13 12 11 11 10 10 10 12 12 9 5 6 9 13 16 18 19 21 22 23 24 25 25 24 25 25 24 21 21 23 25 23 27 25 30 31 27 26
18 18 17 19 17 15 14 13 12 11 10 10 10 10 11 8 6 5 7 10 13 17 19 20 23 24 25 26 24 24 23 23 24 25 27 26 27 25 23 23 24 23 24 28
19 18 18 20 19 17 14 13 12 12 11 11 11 11 13 11 10 10 11 13 17 19 21 22 24 25 27 27 27 26 26 26 25 25 26 27 28 29 29 26 23 23 26 27
28 20 18 20 18 17 15 13 13 12 12 12 12 12 13 14 14 14 15 17 19 22 23 25 27 29 30 31 28 28 30 31 31 32 32 32 32 32 31 31 29 28 27 28
28 25 22 20 21 18 15 13 13 12 13 13 14 14 14 15 15 15 15 16 18 20 22 23 25 26 28 28 27 27 29 30 31 31 32 34 35 35 36 36 35 34 33 33
29 30 24 21 19 17 15 14 13 13 14 14 15 14 15 15 16 17 18 18 20 20 22 23 23 23 22 21 22 23 24 25 26 28 29 31 33 33 33 34 36 38 38 37
27 30 27 24 21 18 16 14 14 14 15 15 15 15 15 15 17 18 19 20 22 23 24 24 25 25 26 26 27 26 25 26 26 26 26 26 27 28 31 32 31 32 34 36
25 28 26 23 22 20 17 15 15 15 15 16 15 15 16 17 19 20 20 21 25 25 25 25 25 25 26 26 26 27 27 26 25 25 25 25 25 26 25 26 28 29 31 31
23 27 26 24 22 20 17 16 16 16 16 16 16 17 18 19 20 21 22 22 23 23 23 23 23 23 23 23 23 23 25 26 26 26 26 25 23 23 24 23 23 23 24 26
24 26 25 23 20 19 18 17 16 16 17 17 17 18 19 19 20 20 22 22 22 22 22 21 21 21 21 20 20 21 22 24 24 24 24 25 25 24 22 20 21 22 22 21
26 27 25 22 20 18 17 17 16 16 17 18 18 18 19 20 21 21 21 22 22 22 22 23 23 23 24 24 24 24 24 25 26 24 23 23 24 25 22 18 17 21 22 22
26 26 23 21 19 18 17 17 16 16 17 18 18 18 18 19 21 22 23 24 25 25 26 27 28 29 30 30 30 30 28 28 28 27 25 23 22 22 22 21 19 16 18 22
27 23 22 21 19 18 17 16 16 16 17 17 17 18 19 21 22 23 25 27 29 30 32 33 34 35 35 35 34 34 33 32 30 29 28 25 23 22 21 19 22 20 14 15
28 26 22 19 18 17 16 17 17 16 16 16 17 19 21 23 25 27 30 32 34 35 36 37 37 37 36 35 34 33 33 32 32 31 29 28 25 24 22 21 19 21 19 18

GFSNGP_700_spd_120.txt.gz
Wind_Speed
11 8 5 4 6 7 8 5 2 0 2 2 5 5 8 9 8 8 7 8 10 10 11 9 4 1 3 4 7 10 11 11 12 9 1 6 12 16 18 15 16 15 15 19
8 7 5 3 3 4 4 4 2 4 4 6 8 8 11 9 5 3 4 5 7 7 7 6 5 4 2 0 3 5 11 14 13 9 11 13 14 14 17 12 12 11 15 17
2 1 1 1 1 2 3 5 5 5 4 7 8 8 7 8 8 7 3 1 1 2 3 4 4 4 3 1 0 1 3 10 16 18 16 10 5 26 24 24 23 17 16 17
2 3 3 1 2 2 4 6 7 6 5 6 7 6 4 4 5 7 9 8 7 5 4 3 2 2 1 2 1 1 3 5 7 11 14 14 9 5 8 8 12 16 18 21
2 4 6 3 1 2 4 3 5 6 7 6 7 8 5 5 6 7 7 11 12 11 12 12 12 11 9 8 7 6 5 6 7 9 11 13 16 16 17 18 19 20 23 25
4 2 4 1 1 2 4 3 3 3 5 6 11 9 8 6 9 8 7 10 11 14 16 16 17 19 19 18 18 17 16 15 15 15 15 15 15 16 17 19 23 25 24 24
7 6 6 7 4 3 3 3 4 4 5 8 10 12 13 15 15 15 12 10 11 12 15 17 19 20 21 23 25 27 26 27 27 27 26 25 24 23 23 23 24 24 24 25
3 5 5 4 5 7 6 8 7 8 9 11 12 14 13 15 18 19 18 16 14 13 13 14 15 16 17 20 23 25 28 30 33 35 37 37 36 35 34 34 34 33 32 31
7 7 14 18 15 14 13 12 12 11 11 11 13 14 15 14 15 19 22 22 20 18 15 13 13 15 15 16 17 18 21 23 27 28 27 29 32 33 34 35 35 35 36 36
20 4 11 16 15 14 15 14 14 13 12 11 12 14 16 16 14 15 21 24 24 24 21 18 17 16 15 16 18 19 20 21 22 23 24 25 29 28 29 31 33 34 35 34
21 16 17 16 17 15 17 16 14 14 14 13 12 13 15 15 14 12 13 21 24 25 24 24 23 21 20 19 20 21 22 22 22 23 23 24 25 28 30 33 32 31 34 35
23 22 22 18 17 17 16 15 15 14 15 14 13 14 13 12 12 10 9 13 19 23 25 26 27 27 25 24 24 24 24 25 25 27 27 27 25 25 26 27 29 30 31 32
28 27 27 24 20 18 17 16 16 14 14 14 13 13 12 10 10 9 8 9 13 18 21 25 27 27 27 28 28 28 27 26 27 29 31 30 28 27 24 22 24 24 25 27
24 25 25 20 19 20 20 18 17 16 14 15 14 14 12 11 10 9 9 9 11 14 18 20 23 26 27 28 28 29 30 30 29 29 28 29 28 27 27 25 25 26 29 29
18 19 19 21 23 23 20 19 18 16 15 15 15 15 15 13 11 10 11 12 12 14 15 17 20 23 25 28 29 31 32 32 31 31 28 29 31 32 31 30 29 27 26 26
36 32 33 26 22 24 23 20 18 17 16 17 16 16 16 15 14 13 14 15 16 18 20 22 24 27 27 29 31 33 35 35 34 33 33 32 33 33 32 31 31 30 30 28
33 34 30 25 24 22 21 21 21 19 18 18 17 17 17 17 17 16 15 17 20 21 23 25 27 28 28 29 31 31 30 30 32 33 35 35 35 37 38 38 37 35 34 32
30 29 31 30 28 25 24 23 21 21 19 19 18 18 18 18 19 18 17 18 20 21 23 24 26 27 27 28 29 28 27 28 30 31 31 31 31 32 33 35 35 36 36 36
20 28 29 29 29 26 24 23 22 21 20 19 18 18 18 19 20 19 19 19 21 22 23 25 26 26 27 28 28 28 29 30 30 31 32 32 32 32 30 29 29 32 33 34
21 18 23 30 33 28 25 24 22 20 20 19 18 18 19 20 20 20 20 21 23 23 25 26 27 27 27 28 29 29 29 29 29 28 29 29 29 29 30 30 29 28 29 32
21 21 22 25 30 27 26 26 22 20 19 19 19 20 20 20 21 21 21 23 25 24 25 26 26 26 25 26 27 27 28 27 27 26 26 28 28 29 29 29 28 27 26 27
25 20 21 25 29 27 27 25 21 19 19 19 20 20 20 20 21 22 22 23 24 24 25 25 25 25 25 26 26 27 27 26 27 27 27 26 25 25 26 26 25 26 24 22
23 22 21 24 27 26 26 24 21 19 19 19 20 21 21 21 21 22 23 23 24 24 25 26 26 26 27 28 29 29 30 30 30 29 29 28 27 26 25 25 24 24 23 20
30 26 24 25 29 28 24 21 19 19 19 19 20 20 20 21 21 22 23 23 24 25 27 28 29 31 32 33 33 34 35 35 35 34 33 32 30 28 27 25 23 22 22 20
30 26 28 28 27 24 23 20 19 19 18 19 19 20 20 20 21 22 23 24 26 28 30 33 35 36 37 37 37 37 37 37 37 38 36 35 33 31 28 26 23 22 20 20
29 24 26 26 24 24 22 20 18 18 18 18 18 18 18 19 21 22 24 26 29 32 34 36 37 38 38 37 35 33 32 32 33 33 34 34 33 33 31 28 25 22 20 20
27 24 28 31 27 22 20 18 17 17 17 17 17 17 18 19 21 23 26 30 32 34 36 37 36 33 31 32 32 32 32 31 30 30 29 30 31 31 31 30 27 24 21 21

GFSNGP_700_spd_126.txt.gz
Wind_Speed
4 3 4 6 6 6 6 4 3 3 5 5 5 5 3 2 4 7 8 10 12 15 16 16 14 13 14 14 12 10 10 10 11 9 9 3 4 16 15 23 20 27 23 27
6 5 7 7 6 4 5 5 6 8 7 5 5 4 2 4 3 1 3 5 7 10 11 12 12 12 13 12 12 12 9 6 6 6 5 5 5 2 6 14 16 16 15 20
4 7 10 6 5 5 6 6 5 7 5 5 4 5 4 3 1 4 4 2 1 2 5 7 8 9 10 10 10 9 8 7 6 4 2 3 2 3 4 5 9 13 14 17
8 9 2 3 5 6 9 7 8 6 5 3 3 4 6 5 2 1 4 6 6 5 4 4 5 5 7 8 9 9 9 7 6 5 5 4 5 6 7 7 7 11 18 18
5 9 9 2 2 4 6 7 7 7 7 5 5 3 4 4 5 5 4 3 6 9 9 9 9 9 9 9 9 8 8 8 9 9 8 9 9 9 9 12 13 16 14 13
5 3 2 4 6 6 5 1 9 9 9 8 8 7 8 6 6 8 9 7 6 7 8 10 12 13 13 14 14 15 15 14 14 15 15 15 16 17 17 17 17 17 17 18
9 7 5 6 7 11 5 6 13 11 10 10 11 11 12 11 9 7 8 13 13 11 10 9 9 10 11 11 12 14 16 17 19 19 20 22 24 24 24 24 24 25 26 26
4 5 3 14 19 13 18 19 17 14 12 12 12 13 13 13 14 14 13 10 12 15 14 13 12 11 11 10 10 11 13 14 15 17 20 21 22 25 26 29 29 32 34 36
8 9 21 16 22 20 20 19 18 17 16 13 13 13 13 15 15 16 16 14 12 13 17 17 17 15 15 13 13 13 14 15 16 17 18 20 21 23 25 27 29 31 33 34
22 10 25 20 16 15 18 18 18 18 18 16 15 15 14 13 15 15 16 17 14 13 15 16 19 21 20 19 20 20 20 21 21 22 23 24 26 27 28 29 30 32 33 35
38 26 19 22 19 22 24 23 20 18 18 18 17 15 14 13 13 13 14 15 16 15 15 14 16 19 20 22 22 23 23 26 28 29 29 29 31 31 31 34 34 35 36 37
41 28 29 27 25 27 24 25 24 23 20 19 18 17 15 15 14 13 13 12 13 13 15 15 15 16 17 20 23 24 25 28 30 32 33 35 35 34 37 37 38 39 40 41
35 29 29 29 28 27 28 26 27 26 23 21 20 19 18 16 15 14 14 13 12 11 12 14 15 16 18 19 21 22 23 25 28 30 32 34 35 36 37 35 38 39 40 41
39 34 30 26 26 24 24 23 24 23 23 24 21 21 20 18 17 16 15 15 15 14 14 14 15 17 19 21 22 23 25 27 29 31 33 35 36 37 38 39 39 38 38 39
21 23 20 23 26 31 28 26 28 25 22 24 25 23 22 20 19 17 17 17 17 17 17 17 18 19 21 22 24 26 28 29 29 31 33 34 35 36 37 38 40 40 39 37
31 34 28 26 28 32 36 38 34 31 30 26 27 26 25 23 22 20 18 18 18 19 19 20 21 21 22 24 25 28 29 29 31 32 33 34 35 36 37 39 40 39 38 37
33 35 31 32 31 33 35 37 39 35 32 32 29 29 28 26 24 22 21 20 19 20 20 22 23 23 23 24 26 29 30 31 33 33 34 34 35 36 38 38 37 36 35 34
28 24 21 22 23 25 28 30 33 33 34 32 31 33 30 27 24 23 22 21 20 21 22 22 24 24 25 26 28 29 30 31 32 32 33 34 35 36 36 35 33 32 31 32
16 17 16 22 24 28 30 28 30 33 35 36 34 32 29 28 26 24 23 22 22 22 23 24 25 25 26 27 28 28 29 30 31 32 34 35 35 35 34 33 31 29 31 31
23 27 31 30 29 28 28 29 28 33 33 34 34 32 32 29 26 25 23 23 22 23 24 24 25 26 26 27 28 28 29 30 32 34 35 36 36 36 35 34 34 34 33 31
29 27 26 30 32 30 27 26 27 29 31 31 31 29 30 30 28 25 24 23 23 23 24 25 25 25 26 27 28 29 31 33 35 37 37 38 39 40 39 38 37 35 34 32
19 19 18 17 16 18 22 26 25 26 30 30 28 30 30 28 26 25 24 24 23 23 23 24 24 24 25 27 29 31 34 36 37 39 40 41 41 41 41 40 38 37 35 34
25 23 22 23 21 21 18 18 21 25 28 28 28 27 27 27 27 25 24 24 23 23 24 23 23 24 26 28 31 33 35 37 38 38 38 38 38 37 36 35 35 34 34 34
29 32 32 30 29 26 23 20 20 22 25 27 27 27 27 26 25 24 23 23 23 23 23 22 23 25 29 31 33 34 34 35 36 37 37 37 38 38 37 36 34 32 30 30
42 44 45 41 37 34 31 25 21 23 25 27 26 26 25 25 24 24 22 22 22 21 21 22 25 28 30 32 32 33 35 36 37 37 37 37 37 36 36 35 34 33 31 28
43 44 43 40 34 31 31 28 24 22 24 26 24 24 24 23 23 22 22 21 19 20 21 25 27 29 29 31 32 33 34 36 36 36 37 37 37 37 36 35 34 33 32 30
38 37 38 35 26 24 28 28 26 27 25 25 25 24 24 23 21 21 20 18 18 20 24 26 27 27 29 30 31 33 33 34 36 37 37 38 38 37 37 36 35 34 32 30

GFSNGP_700_spd_129.txt.gz
Wind_Speed
7 6 5 6 5 7 7 7 5 6 10 6 5 5 6 4 2 4 6 8 12 15 18 19 20 20 18 14 13 14 15 15 14 14 10 6 7 10 9 9 12 8 15 23
13 6 9 10 8 7 8 8 10 11 11 4 4 3 4 6 6 3 2 3 5 8 11 12 14 16 16 15 14 12 10 10 12 11 10 10 10 7 3 5 7 15 13 12
4 7 14 8 1 3 5 7 8 9 9 9 5 4 4 3 7 9 7 5 2 1 2 4 6 8 9 10 11 12 11 10 9 7 7 6 5 5 4 3 4 9 10 12
8 9 2 3 5 5 5 5 5 6 6 5 7 6 6 5 7 7 8 10 9 7 5 3 2 1 2 3 4 5 5 6 6 6 5 4 2 0 2 2 3 4 6 9
6 10 9 1 4 6 8 5 7 5 3 5 6 6 3 4 6 7 9 10 10 11 11 10 9 8 6 5 5 5 4 3 3 4 4 4 5 5 5 7 8 9 11 12
7 5 2 3 6 9 8 3 13 12 9 5 4 5 5 6 6 7 11 12 12 12 12 12 12 13 12 11 11 10 9 9 10 11 12 12 13 13 13 14 15 15 17 17
9 8 6 2 14 14 3 6 17 14 12 11 9 8 7 6 5 6 8 12 15 15 15 14 12 12 11 10 11 10 10 10 10 11 11 13 15 16 17 19 21 22 25 26
5 7 6 11 11 15 19 19 18 16 15 13 12 11 10 9 9 7 5 5 9 14 17 16 16 13 13 12 10 10 10 10 10 10 11 12 13 14 16 18 19 20 22 25
10 10 19 14 23 23 18 15 16 18 19 16 14 13 12 12 10 10 10 10 8 8 9 14 16 16 15 15 14 13 13 14 14 15 15 16 17 19 20 21 23 24 25 26
29 24 18 26 23 19 21 18 20 19 19 19 18 16 14 13 13 12 11 11 10 9 8 8 11 14 16 17 18 18 18 18 18 20 21 22 23 24 25 26 27 28 29 30
39 25 30 23 21 22 23 23 22 23 22 20 20 19 18 16 15 14 13 12 11 10 9 8 9 10 13 16 16 18 19 19 19 20 21 22 23 24 26 28 29 30 32 34
42 28 31 19 19 24 29 25 25 28 26 24 23 20 21 18 18 17 16 14 12 11 11 11 10 10 12 14 15 15 16 17 18 19 21 21 22 24 26 29 32 34 36 39
31 28 35 33 26 25 26 28 30 30 27 25 24 23 22 21 20 18 18 18 16 14 13 13 13 13 13 14 15 16 16 17 19 21 23 25 26 27 26 27 30 32 36 39
31 29 31 21 24 23 27 29 32 29 25 22 22 22 22 22 23 20 19 19 18 17 16 16 15 15 15 16 17 18 19 20 22 24 25 27 29 31 32 32 31 30 34 37
26 27 32 28 24 26 29 31 34 33 29 23 24 22 23 25 25 24 22 21 20 19 19 18 17 17 18 18 19 21 22 23 24 26 27 28 30 32 33 34 36 37 37 38
33 34 35 36 33 32 32 32 33 30 33 31 31 30 28 26 29 28 25 23 21 20 19 19 19 19 20 20 21 22 24 25 26 27 28 30 32 33 35 37 39 39 39 38
32 33 30 32 29 27 34 35 34 32 35 39 37 35 34 33 32 30 27 25 23 22 20 20 21 21 21 22 22 23 25 26 27 28 29 30 32 34 36 38 39 38 36 35
25 28 27 25 22 20 25 31 35 35 34 33 35 36 35 34 30 29 30 28 25 24 23 22 22 23 24 24 24 24 25 27 28 29 30 31 33 36 38 39 39 38 36 33
25 23 23 21 18 17 18 21 25 30 31 32 32 34 34 33 29 29 31 29 26 25 25 23 23 24 24 25 25 25 26 27 28 29 31 33 36 38 40 40 40 40 39 37
25 22 22 24 26 27 29 31 30 28 28 31 30 31 34 34 31 30 29 28 27 27 25 24 24 25 25 25 25 26 26 27 28 30 33 36 38 39 40 41 42 41 40 39
17 24 28 31 33 34 31 29 28 27 28 27 27 25 28 31 31 29 28 27 27 27 26 25 25 25 25 26 25 25 26 28 30 33 36 38 39 40 41 40 39 38 38 37
19 25 27 26 24 21 20 20 21 21 23 25 23 24 26 31 31 30 28 27 27 25 25 25 25 25 25 24 24 25 27 30 33 35 37 38 40 40 40 40 39 38 38 36
27 28 27 26 25 25 25 26 24 25 26 24 24 25 27 27 27 29 27 26 26 25 25 25 24 24 23 23 24 27 30 32 34 36 37 38 39 40 40 39 39 38 37 35
30 31 32 33 32 31 32 36 34 30 27 28 28 26 27 27 27 26 25 24 24 24 24 23 23 21 21 22 26 30 32 33 35 36 37 38 38 39 39 39 39 38 37 36
31 34 34 35 37 40 43 41 37 31 29 28 27 26 26 26 26 25 24 24 23 23 22 21 19 19 20 25 29 30 32 33 34 35 35 36 38 38 38 38 37 37 36 36
37 40 42 45 46 45 44 39 34 30 26 27 28 26 26 25 24 24 23 22 22 21 19 17 16 19 24 27 29 30 31 32 33 33 35 37 37 37 37 38 38 38 38 38
41 41 40 39 40 37 32 28 25 24 24 26 27 26 26 25 24 23 22 20 19 17 15 14 17 22 26 27 28 29 31 30 31 33 35 35 36 37 38 39 38 36 34 32

GFSNGP_700_spd_132.txt.gz
Wind_Speed
13 14 13 12 10 12 10 9 7 7 14 10 14 14 12 8 6 4 2 4 7 11 14 16 16 16 14 14 17 19 18 14 14 13 12 13 8 9 15 14 15 17 16 16
9 5 9 14 13 14 14 13 13 12 12 3 6 10 12 10 9 8 6 3 1 3 6 8 11 12 13 13 14 14 13 12 13 11 12 11 10 10 6 5 7 13 15 11
5 8 13 11 4 8 10 10 11 12 9 9 6 6 9 11 10 11 12 9 7 4 2 2 4 6 7 7 8 10 10 10 10 9 10 9 8 8 6 5 6 9 13 15
7 8 3 3 4 4 7 7 6 6 8 6 5 8 5 9 12 13 12 12 12 11 9 6 4 2 2 1 3 4 5 5 5 6 6 5 4 4 2 1 2 3 5 7
4 7 13 9 5 2 6 6 2 4 4 6 5 2 3 4 6 10 13 14 12 13 13 13 11 9 7 6 4 4 3 3 2 1 1 1 1 1 3 4 5 6 8 10
7 4 4 4 3 6 10 6 5 9 7 4 5 6 4 3 3 6 8 12 14 14 14 14 13 12 13 12 11 10 10 9 9 9 9 9 10 10 11 11 12 13 14 15
13 10 11 12 6 8 1 6 16 13 11 10 8 6 5 5 5 4 4 7 10 14 15 16 15 14 13 12 11 10 10 10 10 11 11 11 11 12 14 15 16 17 18 20
8 8 9 11 9 10 16 18 13 11 11 10 10 10 9 8 7 6 6 6 7 9 13 15 16 16 15 13 13 12 11 10 10 9 10 11 11 12 12 13 14 16 18 19
12 9 12 21 27 20 21 19 17 16 16 14 12 11 12 11 10 10 9 8 8 9 10 13 16 18 17 17 16 15 14 14 15 14 14 14 15 15 16 17 18 19 20 21
31 28 19 17 25 27 28 24 22 20 21 20 17 16 15 14 13 11 11 11 11 11 11 12 14 16 18 19 18 17 18 17 17 16 16 17 18 18 19 19 20 21 21 22
42 33 36 29 23 20 22 23 25 24 25 25 23 21 20 19 17 16 15 13 12 12 12 13 12 14 15 16 17 17 17 17 18 17 17 17 17 17 18 20 22 23 24 25
46 25 34 26 24 25 26 28 29 32 30 27 27 24 24 23 22 21 18 17 15 14 14 14 14 14 14 14 14 15 15 16 16 16 17 18 19 20 21 22 24 27 29 30
26 21 31 30 25 28 31 31 33 35 32 31 29 26 24 25 24 24 22 20 19 18 17 16 15 15 15 15 16 15 15 16 17 18 19 20 21 20 21 25 27 29 30 33
36 34 37 26 28 25 31 33 36 38 38 37 31 27 23 22 23 24 23 23 23 21 20 19 18 18 17 17 18 18 18 19 20 20 21 22 23 23 23 24 26 28 31 34
31 33 38 36 36 33 31 30 35 37 35 36 33 31 28 24 22 21 25 27 25 24 23 22 21 20 20 20 20 20 21 22 23 23 23 24 25 26 27 28 29 29 31 35
37 39 43 44 41 37 36 33 38 34 32 31 33 32 31 30 29 27 28 28 27 25 26 25 24 23 23 23 22 23 23 23 24 25 25 25 26 27 28 30 31 33 36 39
37 38 37 40 37 30 29 29 33 37 42 39 33 32 32 32 36 36 34 31 29 30 28 27 26 25 24 24 23 24 24 25 25 25 26 27 27 28 30 32 34 36 38 39
27 26 28 28 30 29 28 27 27 28 30 33 34 35 33 33 34 34 34 33 32 31 29 27 27 26 25 25 24 25 25 25 26 27 27 28 29 30 32 35 37 39 39 40
23 23 24 28 27 23 21 19 16 15 17 22 26 28 30 29 29 31 32 34 33 31 27 28 28 27 27 26 25 26 25 26 27 27 27 28 30 33 36 38 39 40 41 41
22 25 26 24 22 21 19 20 21 24 27 26 24 26 26 26 27 27 30 31 30 29 30 27 27 29 28 27 26 26 26 26 26 27 28 30 33 36 38 39 40 41 41 41
23 25 23 21 20 22 24 24 22 16 15 14 16 20 25 26 27 26 29 28 27 28 30 28 27 28 28 27 26 26 26 25 26 27 29 32 36 38 39 40 41 41 41 42
23 22 20 19 19 20 20 19 18 18 19 21 20 18 20 22 23 25 26 27 29 30 29 28 27 27 27 26 25 25 24 24 25 28 31 35 38 39 40 40 41 41 42 43
21 20 20 20 21 21 22 22 23 24 24 25 27 26 24 22 23 23 24 25 27 27 28 27 27 26 25 25 24 23 22 23 27 31 33 37 38 39 40 39 41 43 43 43
24 24 24 24 24 25 27 29 30 31 33 36 34 26 26 24 23 24 27 27 26 26 25 25 24 23 23 22 21 20 21 26 30 32 36 37 38 38 39 42 43 43 43 43
27 28 29 29 28 28 31 36 38 40 40 38 29 24 24 26 24 22 24 25 25 24 24 24 22 21 20 19 18 21 24 27 31 35 35 36 35 38 40 42 42 42 43 42
30 30 31 31 32 36 38 37 35 33 30 25 23 21 23 24 24 22 23 23 23 23 22 21 19 18 17 17 19 22 25 29 33 33 33 33 36 38 39 40 40 42 41 39
31 32 33 35 36 36 35 34 29 24 21 20 20 21 24 24 23 24 24 24 22 21 19 17 16 16 16 18 20 23 28 29 30 29 30 33 34 35 37 38 38 37 37 36